Regional Weather Roundup
Issued by NWS

Home | Current Version | Previous Version | Text Only | Print | Product List | Glossary On
Versions: 1 2 3 4 5 6 7 8 9 10 11 12 13 14 15 16 17 18 19 20 21 22 23 24 25 26 27 28 29 30 31 32 33 34 35 36 37 38 39 40 41 42 43 44 45 46 47 48 49 50
000
ASUS43 KFSD 250110
RWRSD

WEATHER ROUNDUP FOR SOUTH DAKOTA
NATIONAL WEATHER SERVICE SIOUX FALLS SD
800 PM CDT FRI MAR 24 2017

NOTE: "FAIR" INDICATES FEW OR NO CLOUDS BELOW 12,000 FEET WITH NO
SIGNIFICANT WEATHER AND/OR OBSTRUCTIONS TO VISIBILITY.


SDZ001>005-009-010-012>017-250200-
NORTHWEST AND NORTH CENTRAL SOUTH DAKOTA

CITY           SKY/WX    TMP DP  RH WIND       PRES   REMARKS
BUFFALO          N/A     54  33  45 SE14      29.94S
FAITH            N/A     52  36  54 SE15      30.05S
MOBRIDGE       CLEAR     50  31  48 E10       30.08S
$$

SDZ012>016-024>037-041>051-057-063-072>074-250200-
SOUTHWEST AND SOUTH CENTRAL SOUTH DAKOTA

CITY           SKY/WX    TMP DP  RH WIND       PRES   REMARKS
RAPID CTY ARPT CLEAR     52  30  43 SE9       30.04F
PIERRE         CLEAR     46  33  60 E8        30.10R
CUSTER         CLEAR     46  26  45 SE6       30.08S
ELLSWORTH AFB  CLEAR     54  32  42 SE10      30.04S
PHILIP         CLEAR     53  31  42 E10       30.07S
PINE RIDGE     CLEAR     53  31  42 E12       30.08S
SPEARFISH      FAIR      50  30  46 E12       30.02F
WINNER         FAIR      46  32  58 E7        30.11R
$$

SDZ004>011-016>023-039-040-250200-
NORTHEAST SOUTH DAKOTA

CITY           SKY/WX    TMP DP  RH WIND       PRES   REMARKS
ABERDEEN       CLEAR     40  30  67 NE9       30.15S
WATERTOWN      CLOUDY    37  33  85 NE13      30.11S
BROOKINGS      CLOUDY    37  34  87 NE8       30.10S
SISSETON         N/A     34  31  88 N8        30.16S WCI  27
$$

SDZ017-020-022-023-036>040-048>070-250200-
SOUTHEAST SOUTH DAKOTA

CITY           SKY/WX    TMP DP  RH WIND       PRES   REMARKS
SIOUX FALLS    CLOUDY    40  35  83 NE16      30.12R
HURON          CLOUDY    42  34  73 NE9       30.12R
CHAMBERLAIN    CLOUDY    47  36  64 NE7       30.11R
MITCHELL       PTCLDY    39  34  82 NE10      30.13R
YANKTON        CLOUDY    41  36  81 NE14      30.11R
$$

ABBREVIATIONS USED IN REMARKS
   TC - TEMPERATURE IN CELSIUS
  WCI - WIND CHILL INDEX
   HX - HEAT INDEX
  VSB - VISIBILITY




USA.gov is the U.S. government's official web portal to all federal, state and local government web resources and services.